Location: Baia de Cri?
(46.1667°N, 22.7167°E)
Time: 21:33:59
(UTC+00:00)

MOS 1 Rocket - Pass Details

Date: 15 January 2026
Orbit: 608 x 815 km, 97.4° (Epoch: 11 February)

Event Time Altitude Azimuth Distance (km) Brightness Sun altitude
Rises 04:49:18 0° 14° (NNE) 3,051 6.6 -13.3°
Reaches altitude 10° 04:51:38 10° 17° (NNE) 2,100 5.8 -12.9°
Maximum altitude 04:56:10 68° 100° (E) 696 3.5 -12.1°
Drops below altitude 10° 05:00:28 10° 184° (S) 1,988 5.8 -11.4°
Sets 05:02:37 0° 187° (S) 2,874 6.6 -11.1°
